McAlester, OK

3:50 PM CST on December 10, 2019 (GMT -0600)
McAlester Regional

Weather History for KMLC - November, 2019

Change the Weather History Date:

Tuesday, November 12, 2019

  Actual Average Record
Temperature  
Mean Temperature 26 °F -  
Max Temperature 34 °F 63 °F 83 °F (1955)
Min Temperature 18 °F 38 °F 21 °F (1986)
Degree Days  
Heating Degree Days 39    
Moisture  
Dew Point 11 °F    
Average Humidity 60    
Maximum Humidity 81    
Minimum Humidity 35    
Precipitation  
Precipitation 0.00 in - - ()
Sea Level Pressure  
Sea Level Pressure 30.59 in    
Wind  
Wind Speed 10 mph ()    
Max Wind Speed 17 mph    
Max Gust Speed 29 mph    
Visibility 10.0 miles    
Events Snow    
Averages and records for this station are not official NWS values.
T = Trace of Precipitation, MM = Missing Value Source: Averaged Metar Reports

Daily Weather History Graph

Daily Weather History Graph

Search for Another Location

Airport or City:

Astronomy

Nov. 12, 2019 Rise Set
Actual Time 6:54 AM CST 5:19 PM CST
Civil Twilight 6:27 AM CST 5:46 PM CST
Nautical Twilight 5:57 AM CST 6:16 PM CST
Astronomical Twilight 5:27 AM CST 6:46 PM CST
Moon 5:46 PM CST (11/12) 6:48 AM CST (11/12)
Length of Visible Light 11h 19m
Length of Day
10h 25m
Full, 100% of the Moon is Illuminated
Nov 12
Full
Nov 19
Last Quarter
Nov 26
New
Dec 4
First Quarter
Dec 11
Full

Hourly Weather History & Observations

Time (CST) Temp. Windchill Dew Point Humidity Pressure Visibility Wind Dir Wind Speed Gust Speed Precip Events Conditions
12:53 AM 21.9 °F 7.8 °F 12.0 °F 66% 30.64 in 10.0 mi North 17.3 mph 28.8 mph 0.00 in Snow Light Snow
1:53 AM 21.9 °F 7.8 °F 10.9 °F 63% 30.65 in 10.0 mi North 17.3 mph 23.0 mph 0.00 in   Clear
2:53 AM 21.0 °F 7.6 °F 12.0 °F 68% 30.66 in 10.0 mi North 15.0 mph - 0.00 in   Clear
3:53 AM 19.9 °F 5.2 °F 12.0 °F 71% 30.66 in 10.0 mi North 17.3 mph 23.0 mph 0.00 in   Clear
4:53 AM 19.0 °F 4.5 °F 10.9 °F 71% 30.67 in 10.0 mi North 16.1 mph 23.0 mph 0.00 in   Scattered Clouds
5:53 AM 19.0 °F 6.8 °F 10.9 °F 71% 30.68 in 10.0 mi North 11.5 mph - N/A   Partly Cloudy
6:53 AM 18.0 °F 6.1 °F 10.0 °F 71% 30.68 in 10.0 mi North 10.4 mph - N/A   Clear
7:53 AM 19.0 °F 5.0 °F 10.0 °F 68% 30.69 in 10.0 mi North 15.0 mph - N/A   Partly Cloudy
8:53 AM 21.0 °F 7.1 °F 10.0 °F 63% 30.70 in 10.0 mi NNE 16.1 mph 21.9 mph N/A   Clear
9:53 AM 23.0 °F 14.7 °F 10.0 °F 58% 30.71 in 10.0 mi NNE 6.9 mph - N/A   Partly Cloudy
10:53 AM 26.1 °F 16.2 °F 10.9 °F 53% 30.67 in 10.0 mi NNE 10.4 mph - N/A   Clear
12:53 PM 30.9 °F 26.2 °F 10.0 °F 42% 30.62 in 10.0 mi Variable 4.6 mph - N/A   Scattered Clouds
1:53 PM 33.1 °F 26.9 °F 9.0 °F 37% 30.58 in 10.0 mi NNE 6.9 mph - N/A   Partly Cloudy
2:53 PM 34.0 °F 28.8 °F 9.0 °F 35% 30.54 in 10.0 mi Variable 5.8 mph - N/A   Partly Cloudy
3:53 PM 34.0 °F 29.8 °F 9.0 °F 35% 30.51 in 10.0 mi NNE 4.6 mph - N/A   Mostly Cloudy
4:53 PM 32.0 °F 28.7 °F 10.9 °F 42% 30.48 in 10.0 mi Variable 3.5 mph - N/A   Scattered Clouds
5:53 PM 28.0 °F - 12.9 °F 53% 30.48 in 10.0 mi Calm Calm - N/A   Partly Cloudy
6:53 PM 25.0 °F - 14.0 °F 63% 30.48 in 10.0 mi Calm Calm - N/A   Clear
7:53 PM 21.9 °F - 15.1 °F 75% 30.50 in 10.0 mi Calm Calm - N/A   Scattered Clouds
8:53 PM 23.0 °F - 16.0 °F 74% 30.47 in 10.0 mi Calm Calm - N/A   Scattered Clouds
10:53 PM 19.0 °F - 14.0 °F 81% 30.43 in 10.0 mi Calm Calm - N/A   Clear
11:53 PM 21.0 °F 13.4 °F 12.9 °F 71% 30.38 in 10.0 mi ESE 5.8 mph - N/A   Scattered Clouds